Regional Weather Roundup
Issued by NWS Sterling, VA

Home | Current Version | Previous Version | Graphics & Text | Print | Product List | Glossary On
Versions: 1 2 3 4 5 6 7 8 9 10 11 12 13 14 15 16 17 18 19 20 21 22 23 24 25 26 27 28 29 30 31 32 33 34 35 36 37 38 39 40 41 42 43 44 45 46 47 48 49 50
000
ASUS41 KLWX 301510
RWRLWX

REGIONAL WEATHER ROUNDUP
NATIONAL WEATHER SERVICE BALTIMORE MD/WASHINGTON DC
1100 AM EDT WED JUL 30 2014

Note: "FAIR" indicates few or no clouds below 12,000 feet
with no significant weather and/or obstructions to visibility.
 TC=TEMPERATURE CELSIUS

 * =Non NWS site. Station does not report precipitation (e.g. rain,
    snow, etc.), thunder, or fog.

DCZ001-MDZ009-015-VAZ040>042-051-053>054-301600-
WASHINGTON METRO
  /KDAA//-FT BELVOIR

CITY           SKY/WX    TMP DP  RH WIND       PRES   REMARKS
WASHINGTON NAT MOSUNNY   77  51  40 N3        30.09S
DULLES         MOSUNNY   72  48  42 CALM      30.09S
ANDREWS AFB    SUNNY     72  51  47 VRB3      30.09R
QUANTICO       MOSUNNY   71  56  58 S6        30.11R
COLLEGE PARK*  SUNNY     73  50  43 CALM      30.08S
LEESBURG*      SUNNY     73  55  53 N7        30.10R
MANASSAS*      SUNNY     70  55  60 CALM      30.10R
GAITHERSBURG*  SUNNY     70  52  52 CALM      30.13R

$$

MDZ006>007-011-014-301600-
BALTIMORE METRO

CITY           SKY/WX    TMP DP  RH WIND       PRES   REMARKS
BWI AIRPORT    MOSUNNY   75  51  43 CALM      30.08R
MD SCIENCE CTR   N/A     73  50  44 MISG      30.08S
MARTIN STATE   MOSUNNY   73  55  53 CALM      30.09S
ANNAPOLIS      SUNNY     73  52  47 CALM      30.08S
FORT MEADE*    SUNNY     72  54  53 W3        30.11R

$$

MDZ012-015-019>023-301600-
MARYLAND EASTERN SHORE

CITY           SKY/WX    TMP DP  RH WIND       PRES   REMARKS
OCEAN CITY     SUNNY     75  54  47 N9        30.07R
SALISBURY      SUNNY     76  51  41 W5        30.07S
BAY BRIDGE AP*   N/A     72  52  49 NW5       30.08S
CAMBRIDGE*     SUNNY     73  55  53 N6        30.08R
EASTON*        MOSUNNY   73  55  53 CALM      30.12R

$$

MDZ017>025-301600-
SOUTHERN MARYLAND

CITY           SKY/WX    TMP DP  RH WIND       PRES   REMARKS
PATUXENT RIVER MOSUNNY   74  51  44 VRB7      30.09R
ST INIGOES     SUNNY     74  52  46 CALM      30.09R
LEONARDTOWN*   SUNNY     72  50  46 CALM      30.11R

$$

MDZ003>005-301600-
NORTH CENTRAL MARYLAND

CITY           SKY/WX    TMP DP  RH WIND       PRES   REMARKS
FREDERICK*     SUNNY     73  57  56 W3        30.11S
HAGERSTOWN APT SUNNY     67  52  58 VRB5      30.09S
WESTMINSTER*   MOSUNNY   66  55  68 CALM      30.09S

$$

MDZ501>502-301600-
WESTERN MARYLAND

CITY           SKY/WX    TMP DP  RH WIND       PRES   REMARKS
OAKLAND*       PTSUNNY   61  54  77 W6        30.14S
CUMBERLAND*    SUNNY     70  57  64 SE3       30.14S

$$

VAZ025>031-301600-
SHENANDOAH VALLEY

CITY           SKY/WX    TMP DP  RH WIND       PRES   REMARKS
WINCHESTER*    SUNNY     70  52  52 NW6       30.10R
STAUNTON*      SUNNY     69  53  56 SW6       30.14S

$$

WVZ021-048>050-054>055-301600-
EASTERN WEST VIRGINIA PANHANDLE

CITY           SKY/WX    TMP DP  RH WIND       PRES   REMARKS
MARTINSBURG    SUNNY     70  51  51 SW5       30.10S
PETERSBURG*    PTSUNNY   68  51  53 CALM      30.12R

$$

VAZ036>039-050-301600-
CENTRAL FOOTHILLS

CITY           SKY/WX    TMP DP  RH WIND       PRES   REMARKS
CHARLOTTESVILL SUNNY     71  54  54 VRB3      30.11R
ORANGE*        SUNNY     72  50  46 CALM      30.12R

$$

VAZ055>057-301600-
NORTH AND CENTRAL PIEDMONT

CITY           SKY/WX    TMP DP  RH WIND       PRES   REMARKS
FREDERICKSBRG* SUNNY     74  53  47 CALM      30.09S
STAFFORD*      SUNNY     72  51  47 CALM      30.14R

$$

NCZ024-NYZ072-PAZ021-071-VAZ022-071-301600-
OTHER REGIONAL OBSERVATIONS

CITY           SKY/WX    TMP DP  RH WIND       PRES   REMARKS
NEW YORK CITY  SUNNY     73  51  46 VRB5      30.06S
PHILADELPHIA   MOSUNNY   74  49  41 VRB3      30.06S
PITTSBURGH     MOSUNNY   67  56  67 SW7       30.06S
ROANOKE        MOSUNNY   70  51  51 VRB3      30.15S
RICHMOND       PTSUNNY   76  51  41 CALM      30.10S
RALEIGH        PTSUNNY   73  63  70 E6        30.09S

$$

ANZ530>537-301600-
MARINE OBSERVATIONS

STATION/POSITION TIME  TEMP    WIND        PRES
                       AIR SEA DIR/SP/G
                 (UTC) (F)     (DEG/KT/KT) (MB)
THOMAS PT LIGHT  1500   70 77   CALM  /  2 1019.3R
BALT KEY BRIDGE  1500   70     260/  2/  3 1018.3R
COVE POINT       1500   69     360/  5/  9 1018.8R
LEWISETTA        1500   71 76  350/  7/ 10 1018.8R
SOLOMONS ISLAND  1500      79                N/A
PINEY POINT      1500          330/  6/  8   N/A

$$



USA.gov is the U.S. government's official web portal to all federal, state and local government web resources and services.